Preview of NWS' New Version of Forecast
This preview is not operational and should not be used for support decisions.

Terminal Aerodrome Forecast (TAF)

Issued by National Weather Service (NWS)

                            
000
FTUS42 KKEY 221135
TAFEYW
TAF
KEYW 221135Z 2212/2312 12008KT P6SM FEW020=